| time (UTC) | temp C | wind direction | speed KPH | gust KPH | rain 1hr cm | rain 24hr cm | rain mn cm | humidity % | barometer mb |
| 20260510153615 | 14 | 237 | 1.6 | 4.8 | 0.00 | 0.03 | 0.00 | 65 | 1023.9 |
| 20260510153115 | 14 | 236 | 1.6 | 6.4 | 0.00 | 0.03 | 0.00 | 65 | 1023.8 |
| 20260510152616 | 14 | 236 | 1.6 | 6.4 | 0.00 | 0.03 | 0.00 | 66 | 1023.8 |
| 20260510152115 | 14 | 102 | 1.6 | 4.8 | 0.00 | 0.03 | 0.00 | 69 | 1023.8 |
| 20260510151615 | 13 | 87 | 0.0 | 3.2 | 0.00 | 0.03 | 0.00 | 69 | 1023.7 |
| 20260510151116 | 13 | 87 | 0.0 | 0.0 | 0.00 | 0.03 | 0.00 | 70 | 1023.7 |
| 20260510150615 | 13 | 87 | 0.0 | 0.0 | 0.00 | 0.03 | 0.00 | 71 | 1023.7 |
| 20260510150114 | 13 | 86 | 0.0 | 0.0 | 0.00 | 0.03 | 0.00 | 72 | 1023.8 |
| 20260510145613 | 13 | 84 | 0.0 | 0.0 | 0.00 | 0.03 | 0.00 | 73 | 1023.8 |
| 20260510144113 | 12 | 84 | 0.0 | 1.6 | 0.00 | 0.03 | 0.00 | 76 | 1023.7 |
| 20260510143614 | 12 | 84 | 0.0 | 3.2 | 0.00 | 0.03 | 0.00 | 77 | 1023.9 |
| 20260510143110 | 12 | 84 | 0.0 | 3.2 | 0.00 | 0.03 | 0.00 | 78 | 1023.8 |
| 20260510142610 | 12 | 79 | 0.0 | 3.2 | 0.00 | 0.03 | 0.00 | 79 | 1023.8 |
| 20260510141609 | 11 | 79 | 0.0 | 3.2 | 0.00 | 0.03 | 0.00 | 83 | 1023.8 |
| 20260510140610 | 11 | 79 | 0.0 | 1.6 | 0.00 | 0.03 | 0.00 | 84 | 1023.9 |
| 20260510140110 | 11 | 79 | 0.0 | 1.6 | 0.00 | 0.03 | 0.00 | 85 | 1023.9 |
| 20260510135612 | 10 | 79 | 0.0 | 1.6 | 0.00 | 0.03 | 0.00 | 85 | 1023.9 |
| 20260510135109 | 10 | 79 | 0.0 | 0.0 | 0.00 | 0.03 | 0.00 | 86 | 1023.8 |
| 20260510134610 | 10 | 79 | 0.0 | 1.6 | 0.00 | 0.03 | 0.00 | 86 | 1023.9 |
| 20260510134110 | 10 | 79 | 0.0 | 1.6 | 0.00 | 0.03 | 0.00 | 86 | 1023.9 |
| 20260510133609 | 9 | 79 | 0.0 | 1.6 | 0.00 | 0.03 | 0.00 | 86 | 1023.8 |
| 20260510133109 | 9 | 79 | 0.0 | 1.6 | 0.00 | 0.03 | 0.00 | 86 | 1023.9 |
| 20260510132609 | 9 | 79 | 0.0 | 0.0 | 0.00 | 0.03 | 0.00 | 86 | 1023.8 |
| 20260510132111 | 8 | 79 | 0.0 | 0.0 | 0.00 | 0.03 | 0.00 | 86 | 1023.7 |
| 20260510131609 | 8 | 0 | 0.0 | 0.0 | 0.00 | 0.03 | 0.00 | 86 | 1023.8 |
| 20260510125557 | 8 | 79 | 0.0 | 0.0 | 0.00 | 0.03 | 0.00 | 85 | 1024.1 |
| 20260510125054 | 8 | 79 | 0.0 | 0.0 | 0.00 | 0.03 | 0.00 | 85 | 1024.1 |
| 20260510124544 | 8 | 79 | 0.0 | 0.0 | 0.00 | 0.03 | 0.00 | 85 | 1024.2 |
| 20260510124039 | 8 | 79 | 0.0 | 1.6 | 0.00 | 0.03 | 0.00 | 85 | 1024.2 |
| 20260510123027 | 8 | 79 | 0.0 | 3.2 | 0.00 | 0.03 | 0.00 | 85 | 1024.2 |
| 20260510122014 | 8 | 79 | 0.0 | 3.2 | 0.00 | 0.03 | 0.00 | 84 | 1024.2 |
| 20260510121002 | 8 | 79 | 0.0 | 6.4 | 0.00 | 0.03 | 0.00 | 84 | 1023.8 |
| 20260510115950 | 8 | 82 | 0.0 | 3.2 | 0.00 | 0.03 | 0.00 | 84 | 1023.9 |
| 20260510115445 | 8 | 83 | 0.0 | 3.2 | 0.00 | 0.03 | 0.00 | 84 | 1023.8 |
| 20260510114433 | 8 | 82 | 0.0 | 9.7 | 0.00 | 0.03 | 0.00 | 83 | 1023.7 |
| 20260510113928 | 8 | 82 | 1.6 | 9.7 | 0.00 | 0.03 | 0.00 | 83 | 1023.7 |
| 20260510113422 | 8 | 103 | 0.0 | 6.4 | 0.00 | 0.03 | 0.00 | 83 | 1023.6 |
| 20260510112408 | 8 | 85 | 0.0 | 4.8 | 0.00 | 0.03 | 0.00 | 83 | 1023.7 |
| 20260510111902 | 8 | 75 | 0.0 | 9.7 | 0.00 | 0.03 | 0.00 | 82 | 1023.7 |
| 20260510111356 | 8 | 73 | 0.0 | 9.7 | 0.00 | 0.03 | 0.00 | 82 | 1023.6 |
| 20260510105839 | 9 | 86 | 0.0 | 8.0 | 0.00 | 0.03 | 0.00 | 82 | 1023.5 |
| 20260510105334 | 9 | 71 | 0.0 | 8.0 | 0.00 | 0.03 | 0.00 | 81 | 1023.4 |
| 20260510104827 | 9 | 66 | 0.0 | 4.8 | 0.00 | 0.03 | 0.00 | 81 | 1023.2 |
| 20260510104322 | 9 | 67 | 0.0 | 6.4 | 0.00 | 0.03 | 0.00 | 81 | 1023.2 |
| 20260510103815 | 9 | 65 | 0.0 | 6.4 | 0.00 | 0.03 | 0.00 | 81 | 1023.2 |
| 20260510102803 | 9 | 348 | 0.0 | 1.6 | 0.00 | 0.03 | 0.00 | 80 | 1023.1 |
| 20260510101750 | 9 | 348 | 0.0 | 0.0 | 0.00 | 0.03 | 0.00 | 80 | 1023.0 |
| 20260510101245 | 9 | 348 | 0.0 | 0.0 | 0.00 | 0.03 | 0.00 | 80 | 1023.0 |
| 20260510100738 | 9 | 348 | 0.0 | 0.0 | 0.00 | 0.03 | 0.00 | 80 | 1023.0 |
| 20260510100233 | 9 | 348 | 0.0 | 0.0 | 0.00 | 0.03 | 0.00 | 80 | 1022.9 |
| 20260510095220 | 9 | 348 | 0.0 | 0.0 | 0.00 | 0.03 | 0.00 | 80 | 1022.9 |
| 20260510094208 | 9 | 348 | 0.0 | 0.0 | 0.00 | 0.03 | 0.00 | 80 | 1022.8 |
| 20260510093702 | 9 | 348 | 0.0 | 0.0 | 0.00 | 0.03 | 0.00 | 80 | 1022.8 |
| 20260510093157 | 9 | 348 | 0.0 | 0.0 | 0.00 | 0.03 | 0.00 | 80 | 1022.8 |
| 20260510092651 | 9 | 348 | 0.0 | 0.0 | 0.00 | 0.03 | 0.00 | 80 | 1022.7 |
| 20260510092144 | 9 | 348 | 0.0 | 0.0 | 0.00 | 0.03 | 0.00 | 80 | 1022.7 |
| 20260510091639 | 9 | 348 | 0.0 | 0.0 | 0.00 | 0.03 | 0.00 | 80 | 1022.7 |
| 20260510091133 | 9 | 348 | 0.0 | 0.0 | 0.00 | 0.03 | 0.00 | 80 | 1022.7 |
| 20260510090628 | 9 | 348 | 0.0 | 0.0 | 0.00 | 0.03 | 0.00 | 80 | 1022.5 |
| 20260510085615 | 9 | 348 | 0.0 | 0.0 | 0.00 | 0.03 | 0.00 | 79 | 1022.4 |
| 20260510085109 | 9 | 348 | 0.0 | 0.0 | 0.00 | 0.03 | 0.00 | 79 | 1022.4 |
| 20260510084603 | 9 | 348 | 0.0 | 0.0 | 0.00 | 0.03 | 0.00 | 79 | 1022.4 |
| 20260510084056 | 9 | 348 | 0.0 | 0.0 | 0.00 | 0.03 | 0.00 | 79 | 1022.3 |
| 20260510083550 | 9 | 348 | 0.0 | 0.0 | 0.00 | 0.03 | 0.00 | 79 | 1022.2 |
| 20260510083044 | 9 | 348 | 0.0 | 0.0 | 0.00 | 0.03 | 0.00 | 79 | 1022.2 |
| 20260510082540 | 9 | 348 | 0.0 | 0.0 | 0.00 | 0.03 | 0.00 | 79 | 1022.1 |
| 20260510082034 | 9 | 348 | 0.0 | 0.0 | 0.00 | 0.03 | 0.00 | 79 | 1022.0 |
| 20260510081021 | 9 | 348 | 0.0 | 0.0 | 0.00 | 0.03 | 0.00 | 79 | 1022.0 |
| 20260510080514 | 9 | 348 | 0.0 | 0.0 | 0.00 | 0.03 | 0.00 | 79 | 1022.0 |
| 20260510080009 | 9 | 348 | 0.0 | 0.0 | 0.00 | 0.03 | 0.00 | 79 | 1022.0 |
| 20260510075504 | 9 | 348 | 0.0 | 0.0 | 0.00 | 0.03 | 0.00 | 79 | 1022.1 |
| 20260510074957 | 9 | 348 | 0.0 | 0.0 | 0.00 | 0.03 | 0.00 | 79 | 1022.2 |
| 20260510073945 | 9 | 348 | 0.0 | 0.0 | 0.00 | 0.03 | 0.00 | 79 | 1022.4 |
| 20260510073439 | 9 | 348 | 0.0 | 0.0 | 0.00 | 0.03 | 0.00 | 79 | 1022.4 |
| 20260510072940 | 9 | 348 | 0.0 | 0.0 | 0.00 | 0.03 | 0.00 | 79 | 1022.5 |
| 20260510072436 | 9 | 348 | 0.0 | 0.0 | 0.00 | 0.03 | 0.00 | 79 | 1022.5 |
| 20260510071934 | 9 | 348 | 0.0 | 0.0 | 0.00 | 0.03 | 0.00 | 79 | 1022.5 |
| 20260510070934 | 9 | 348 | 0.0 | 0.0 | 0.00 | 0.03 | 0.00 | 79 | 1022.5 |
| 20260510070431 | 9 | 348 | 0.0 | 0.0 | 0.00 | 0.03 | 0.00 | 79 | 1022.4 |
| 20260510065932 | 9 | 348 | 0.0 | 0.0 | 0.00 | 0.03 | 0.00 | 79 | 1022.5 |
| 20260510065428 | 9 | 348 | 0.0 | 0.0 | 0.00 | 0.03 | 0.00 | 79 | 1022.5 |
| 20260510064927 | 9 | 348 | 0.0 | 0.0 | 0.00 | 0.03 | 0.00 | 79 | 1022.5 |
| 20260510064427 | 9 | 348 | 0.0 | 1.6 | 0.00 | 0.03 | 0.00 | 80 | 1022.5 |
| 20260510063425 | 9 | 348 | 0.0 | 1.6 | 0.00 | 0.03 | 0.00 | 80 | 1022.7 |
| 20260510062923 | 9 | 348 | 0.0 | 1.6 | 0.00 | 0.03 | 0.00 | 79 | 1022.7 |
| 20260510062422 | 9 | 348 | 0.0 | 1.6 | 0.00 | 0.03 | 0.00 | 80 | 1022.7 |
| 20260510061923 | 9 | 348 | 0.0 | 3.2 | 0.00 | 0.03 | 0.00 | 80 | 1022.7 |
| 20260510061424 | 9 | 348 | 0.0 | 3.2 | 0.00 | 0.03 | 0.00 | 80 | 1022.5 |
| 20260510060923 | 9 | 348 | 0.0 | 1.6 | 0.00 | 0.03 | 0.00 | 80 | 1022.4 |
| 20260510060423 | 9 | 348 | 0.0 | 1.6 | 0.00 | 0.03 | 0.00 | 80 | 1022.5 |
| 20260510055417 | 9 | 348 | 0.0 | 3.2 | 0.00 | 0.03 | 0.03 | 80 | 1022.4 |
| 20260510054912 | 9 | 348 | 0.0 | 3.2 | 0.03 | 0.03 | 0.03 | 80 | 1022.4 |
| 20260510054405 | 9 | 348 | 0.0 | 1.6 | 0.03 | 0.03 | 0.03 | 80 | 1022.2 |
| 20260510053859 | 9 | 348 | 0.0 | 1.6 | 0.03 | 0.03 | 0.03 | 80 | 1022.2 |
| 20260510053352 | 10 | 348 | 0.0 | 1.6 | 0.03 | 0.03 | 0.03 | 80 | 1022.2 |
| 20260510052846 | 10 | 348 | 0.0 | 3.2 | 0.03 | 0.03 | 0.03 | 79 | 1022.1 |
| 20260510051329 | 10 | 347 | 0.0 | 3.2 | 0.03 | 0.03 | 0.03 | 79 | 1022.8 |
| 20260510050823 | 10 | 347 | 0.0 | 3.2 | 0.03 | 0.03 | 0.03 | 78 | 1022.8 |
| 20260510050317 | 10 | 347 | 0.0 | 1.6 | 0.03 | 0.03 | 0.03 | 78 | 1022.8 |
| 20260510045810 | 10 | 347 | 0.0 | 1.6 | 0.03 | 0.03 | 0.03 | 78 | 1022.5 |
| 20260510045306 | 10 | 347 | 0.0 | 0.0 | 0.03 | 0.03 | 0.03 | 77 | 1022.5 |
| 20260510044800 | 10 | 346 | 0.0 | 1.6 | 0.00 | 0.00 | 0.00 | 77 | 1022.4 |
| 20260510044254 | 10 | 346 | 0.0 | 3.2 | 0.00 | 0.00 | 0.00 | 76 | 1022.4 |
| 20260510043748 | 10 | 346 | 0.0 | 3.2 | 0.00 | 0.00 | 0.00 | 75 | 1022.5 |
| 20260510043241 | 10 | 343 | 0.0 | 0.0 | 0.00 | 0.00 | 0.00 | 75 | 1022.3 |
| 20260510042229 | 10 | 342 | 1.6 | 4.8 | 0.00 | 0.00 | 0.00 | 73 | 1022.4 |
| 20260510041724 | 11 | 342 | 1.6 | 4.8 | 0.00 | 0.00 | 0.00 | 72 | 1022.4 |
| 20260510041218 | 11 | 344 | 1.6 | 6.4 | 0.00 | 0.00 | 0.00 | 71 | 1022.5 |
| 20260510040206 | 11 | 345 | 3.2 | 8.0 | 0.00 | 0.00 | 0.00 | 68 | 1022.4 |
| 20260510035659 | 11 | 30 | 3.2 | 9.7 | 0.00 | 0.00 | 0.00 | 68 | 1022.4 |
| 20260510035154 | 11 | 322 | 4.8 | 9.7 | 0.00 | 0.00 | 0.00 | 68 | 1022.2 |
| 20260510034647 | 11 | 294 | 4.8 | 11.3 | 0.00 | 0.00 | 0.00 | 68 | 1022.2 |
| 20260510034142 | 11 | 304 | 4.8 | 11.3 | 0.00 | 0.00 | 0.00 | 68 | 1022.3 |
| 20260510033636 | 11 | 5 | 4.8 | 11.3 | 0.00 | 0.00 | 0.00 | 68 | 1022.2 |
| 20260510033129 | 11 | 346 | 4.8 | 14.5 | 0.00 | 0.00 | 0.00 | 68 | 1022.1 |
| 20260510032624 | 11 | 342 | 4.8 | 14.5 | 0.00 | 0.00 | 0.00 | 68 | 1022.0 |
| 20260510032118 | 11 | 5 | 6.4 | 14.5 | 0.00 | 0.00 | 0.00 | 68 | 1021.7 |
| 20260510031612 | 11 | 346 | 6.4 | 16.1 | 0.00 | 0.00 | 0.00 | 68 | 1021.6 |
| 20260510031106 | 11 | 327 | 6.4 | 19.3 | 0.00 | 0.00 | 0.00 | 68 | 1021.4 |
| 20260510030054 | 11 | 5 | 4.8 | 16.1 | 0.00 | 0.00 | 0.00 | 69 | 1020.7 |
| 20260510025548 | 11 | 37 | 3.2 | 12.9 | 0.00 | 0.00 | 0.00 | 70 | 1020.4 |
| 20260510025042 | 11 | 35 | 4.8 | 12.9 | 0.00 | 0.00 | 0.00 | 70 | 1020.4 |
| 20260510024536 | 11 | 337 | 4.8 | 14.5 | 0.00 | 0.00 | 0.00 | 70 | 1020.2 |
| 20260510024030 | 11 | 319 | 6.4 | 16.1 | 0.00 | 0.00 | 0.00 | 70 | 1020.0 |
| 20260510023523 | 11 | 322 | 6.4 | 16.1 | 0.00 | 0.00 | 0.00 | 70 | 1019.5 |
| 20260510023028 | 11 | 63 | 6.4 | 25.7 | 0.00 | 0.00 | 0.00 | 70 | 1019.2 |
| 20260510022512 | 11 | 344 | 8.0 | 25.7 | 0.00 | 0.00 | 0.00 | 69 | 1018.7 |
| 20260510021500 | 12 | 342 | 8.0 | 25.7 | 0.00 | 0.00 | 0.00 | 67 | 1018.3 |
| 20260510020953 | 12 | 290 | 6.4 | 22.5 | 0.00 | 0.00 | 0.00 | 67 | 1018.0 |
| 20260510020448 | 12 | 351 | 8.0 | 22.5 | 0.00 | 0.00 | 0.00 | 66 | 1017.9 |
| 20260510015942 | 12 | 315 | 8.0 | 19.3 | 0.00 | 0.00 | 0.00 | 65 | 1017.8 |
| 20260510015436 | 12 | 39 | 8.0 | 22.5 | 0.00 | 0.00 | 0.00 | 64 | 1017.4 |
| 20260510014936 | 12 | 15 | 8.0 | 22.5 | 0.00 | 0.00 | 0.00 | 64 | 1017.1 |
| 20260510014437 | 12 | 299 | 9.7 | 22.5 | 0.00 | 0.00 | 0.00 | 63 | 1016.9 |
| 20260510013937 | 13 | 23 | 11.3 | 29.0 | 0.00 | 0.00 | 0.00 | 62 | 1016.7 |
| 20260510013437 | 13 | 304 | 11.3 | 29.0 | 0.00 | 0.00 | 0.00 | 61 | 1016.5 |
| 20260510012436 | 14 | 355 | 9.7 | 27.4 | 0.00 | 0.00 | 0.00 | 57 | 1016.0 |
| 20260510011436 | 15 | 325 | 8.0 | 25.7 | 0.00 | 0.00 | 0.00 | 53 | 1015.4 |
| 20260510010934 | 16 | 355 | 8.0 | 17.7 | 0.00 | 0.00 | 0.00 | 51 | 1015.1 |
| 20260510010435 | 16 | 338 | 8.0 | 17.7 | 0.00 | 0.00 | 0.00 | 48 | 1015.2 |
| 20260510005935 | 17 | 10 | 8.0 | 20.9 | 0.00 | 0.00 | 0.00 | 46 | 1014.8 |
| 20260510004935 | 20 | 320 | 8.0 | 22.5 | 0.00 | 0.00 | 0.00 | 40 | 1014.1 |
| 20260510003432 | 22 | 128 | 0.0 | 1.6 | 0.00 | 0.00 | 0.00 | 27 | 1012.5 |
| 20260510002932 | 22 | 103 | 0.0 | 0.0 | 0.00 | 0.00 | 0.00 | 26 | 1012.3 |
| 20260510002432 | 23 | 104 | 0.0 | 1.6 | 0.00 | 0.00 | 0.00 | 26 | 1012.0 |
| 20260510001433 | 23 | 105 | 0.0 | 0.0 | 0.00 | 0.00 | 0.00 | 25 | 1011.9 |
| 20260510000933 | 23 | 106 | 0.0 | 1.6 | 0.00 | 0.00 | 0.00 | 25 | 1011.9 |
| 20260510000433 | 23 | 117 | 0.0 | 1.6 | 0.00 | 0.00 | 0.00 | 25 | 1011.8 |
| 20260509235932 | 23 | 115 | 0.0 | 6.4 | 0.00 | 0.00 | 0.00 | 26 | 1011.7 |
| 20260509235434 | 23 | 75 | 1.6 | 9.7 | 0.00 | 0.00 | 0.00 | 26 | 1011.7 |
| 20260509234932 | 23 | 76 | 1.6 | 9.7 | 0.00 | 0.00 | 0.00 | 26 | 1011.6 |
| 20260509233933 | 23 | 102 | 0.0 | 19.3 | 0.00 | 0.00 | 0.00 | 25 | 1011.6 |
| 20260509233432 | 24 | 56 | 0.0 | 0.0 | 0.00 | 0.00 | 0.00 | 24 | 1011.3 |
| 20260509232435 | 24 | 57 | 0.0 | 0.0 | 0.00 | 0.00 | 0.00 | 20 | 1011.1 |
| 20260509231435 | 25 | 321 | 0.0 | 1.6 | 0.00 | 0.00 | 0.00 | 20 | 1011.2 |
| 20260509230932 | 25 | 5 | 0.0 | 0.0 | 0.00 | 0.00 | 0.00 | 19 | 1011.1 |
| 20260509230434 | 25 | 65 | 0.0 | 4.8 | 0.00 | 0.00 | 0.00 | 20 | 1011.1 |
| 20260509225933 | 25 | 65 | 0.0 | 4.8 | 0.00 | 0.00 | 0.00 | 20 | 1011.1 |
| 20260509225432 | 25 | 351 | 1.6 | 6.4 | 0.00 | 0.00 | 0.00 | 20 | 1011.2 |
| 20260509224932 | 25 | 80 | 1.6 | 9.7 | 0.00 | 0.00 | 0.00 | 20 | 1011.2 |
| 20260509224431 | 25 | 84 | 1.6 | 9.7 | 0.00 | 0.00 | 0.00 | 19 | 1011.2 |
| 20260509223931 | 25 | 336 | 1.6 | 8.0 | 0.00 | 0.00 | 0.00 | 20 | 1011.1 |
| 20260509223430 | 25 | 80 | 1.6 | 6.4 | 0.00 | 0.00 | 0.00 | 20 | 1011.0 |
| 20260509222427 | 26 | 84 | 1.6 | 8.0 | 0.00 | 0.00 | 0.00 | 18 | 1010.9 |
| 20260509221925 | 25 | 80 | 0.0 | 6.4 | 0.00 | 0.00 | 0.00 | 20 | 1010.9 |
| 20260509221426 | 26 | 62 | 0.0 | 0.0 | 0.00 | 0.00 | 0.00 | 19 | 1011.0 |
| 20260509220926 | 26 | 48 | 0.0 | 0.0 | 0.00 | 0.00 | 0.00 | 19 | 1011.0 |
| 20260509215926 | 25 | 355 | 1.6 | 4.8 | 0.00 | 0.00 | 0.00 | 19 | 1011.1 |
| 20260509214925 | 26 | 99 | 0.0 | 9.7 | 0.00 | 0.00 | 0.00 | 20 | 1011.0 |
| 20260509214424 | 26 | 71 | 0.0 | 1.6 | 0.00 | 0.00 | 0.00 | 20 | 1011.1 |
| 20260509213923 | 25 | 35 | 0.0 | 0.0 | 0.00 | 0.00 | 0.00 | 20 | 1011.1 |
| 20260509213420 | 25 | 55 | 0.0 | 4.8 | 0.00 | 0.00 | 0.00 | 19 | 1011.1 |
| 20260509212918 | 26 | 82 | 0.0 | 4.8 | 0.00 | 0.00 | 0.00 | 20 | 1011.2 |
| 20260509212416 | 26 | 90 | 1.6 | 9.7 | 0.00 | 0.00 | 0.00 | 21 | 1011.2 |
| 20260509211914 | 25 | 82 | 3.2 | 9.7 | 0.00 | 0.00 | 0.00 | 21 | 1011.3 |
| 20260509211414 | 25 | 108 | 3.2 | 11.3 | 0.00 | 0.00 | 0.00 | 20 | 1011.5 |
| 20260509210414 | 25 | 67 | 1.6 | 16.1 | 0.00 | 0.00 | 0.00 | 22 | 1011.5 |
| 20260509205915 | 25 | 123 | 1.6 | 16.1 | 0.00 | 0.00 | 0.00 | 21 | 1011.5 |
| 20260509205413 | 25 | 92 | 1.6 | 9.7 | 0.00 | 0.00 | 0.00 | 21 | 1011.5 |
| 20260509204908 | 25 | 84 | 1.6 | 11.3 | 0.00 | 0.00 | 0.00 | 22 | 1011.5 |
| 20260509204401 | 25 | 46 | 3.2 | 12.9 | 0.00 | 0.00 | 0.00 | 22 | 1011.7 |
| 20260509203855 | 25 | 295 | 3.2 | 12.9 | 0.00 | 0.00 | 0.00 | 22 | 1011.9 |
| 20260509203350 | 25 | 35 | 1.6 | 6.4 | 0.00 | 0.00 | 0.00 | 21 | 1011.7 |
| 20260509202338 | 25 | 29 | 1.6 | 11.3 | 0.00 | 0.00 | 0.00 | 21 | 1011.9 |
| 20260509201326 | 25 | 80 | 0.0 | 11.3 | 0.00 | 0.00 | 0.00 | 23 | 1012.2 |
| 20260509200820 | 25 | 54 | 1.6 | 8.0 | 0.00 | 0.00 | 0.00 | 22 | 1012.2 |
| 20260509200313 | 25 | 57 | 3.2 | 11.3 | 0.00 | 0.00 | 0.00 | 23 | 1012.4 |
| 20260509195808 | 25 | 66 | 3.2 | 12.9 | 0.00 | 0.00 | 0.00 | 23 | 1012.5 |
| 20260509195302 | 25 | 47 | 1.6 | 12.9 | 0.00 | 0.00 | 0.00 | 22 | 1012.3 |
| 20260509194756 | 24 | 350 | 1.6 | 9.7 | 0.00 | 0.00 | 0.00 | 23 | 1012.3 |
| 20260509194249 | 24 | 81 | 3.2 | 11.3 | 0.00 | 0.00 | 0.00 | 23 | 1012.3 |
| 20260509193743 | 25 | 83 | 3.2 | 12.9 | 0.00 | 0.00 | 0.00 | 23 | 1012.3 |
| 20260509192226 | 24 | 46 | 3.2 | 12.9 | 0.00 | 0.00 | 0.00 | 24 | 1012.4 |
| 20260509191725 | 24 | 58 | 3.2 | 12.9 | 0.00 | 0.00 | 0.00 | 22 | 1012.5 |
| 20260509191256 | 24 | 73 | 1.6 | 11.3 | 0.00 | 0.00 | 0.00 | 23 | 1012.4 |
| 20260509190726 | 24 | 71 | 1.6 | 6.4 | 0.00 | 0.00 | 0.00 | 23 | 1012.5 |
| 20260509190225 | 24 | 294 | 1.6 | 9.7 | 0.00 | 0.00 | 0.00 | 23 | 1012.5 |
| 20260509184726 | 23 | 72 | 3.2 | 14.5 | 0.00 | 0.00 | 0.00 | 25 | 1012.6 |
| 20260509184224 | 23 | 53 | 3.2 | 17.7 | 0.00 | 0.00 | 0.00 | 25 | 1012.6 |
| 20260509183723 | 23 | 64 | 3.2 | 17.7 | 0.00 | 0.00 | 0.00 | 25 | 1012.7 |
| 20260509182723 | 23 | 199 | 3.2 | 14.5 | 0.00 | 0.00 | 0.00 | 25 | 1012.7 |
| 20260509181722 | 23 | 86 | 1.6 | 12.9 | 0.00 | 0.00 | 0.00 | 27 | 1012.7 |
| 20260509181220 | 23 | 77 | 3.2 | 14.5 | 0.00 | 0.00 | 0.00 | 26 | 1012.9 |
| 20260509180219 | 23 | 304 | 3.2 | 11.3 | 0.00 | 0.00 | 0.00 | 27 | 1012.7 |
| 20260509175718 | 23 | 45 | 3.2 | 11.3 | 0.00 | 0.00 | 0.00 | 26 | 1012.9 |
| 20260509175218 | 23 | 355 | 4.8 | 14.5 | 0.00 | 0.00 | 0.00 | 28 | 1012.9 |
| 20260509174717 | 22 | 77 | 4.8 | 14.5 | 0.00 | 0.00 | 0.00 | 27 | 1012.7 |
| 20260509174218 | 22 | 94 | 4.8 | 11.3 | 0.00 | 0.00 | 0.00 | 27 | 1012.9 |
| 20260509173218 | 22 | 30 | 3.2 | 14.5 | 0.00 | 0.00 | 0.00 | 28 | 1012.7 |
| 20260509172718 | 22 | 79 | 4.8 | 14.5 | 0.00 | 0.00 | 0.00 | 29 | 1012.7 |
| 20260509171717 | 22 | 117 | 6.4 | 20.9 | 0.00 | 0.00 | 0.00 | 30 | 1012.6 |
| 20260509171218 | 22 | 104 | 4.8 | 16.1 | 0.00 | 0.00 | 0.00 | 30 | 1012.7 |
| 20260509170719 | 22 | 95 | 4.8 | 16.1 | 0.00 | 0.00 | 0.00 | 30 | 1012.7 |
| 20260509165717 | 22 | 114 | 3.2 | 8.0 | 0.00 | 0.00 | 0.00 | 24 | 1012.6 |
| 20260509165218 | 22 | 346 | 4.8 | 12.9 | 0.00 | 0.00 | 0.00 | 24 | 1012.6 |
| 20260509164718 | 22 | 350 | 3.2 | 12.9 | 0.00 | 0.00 | 0.00 | 24 | 1012.6 |
| 20260509163720 | 22 | 0 | 0.0 | 3.2 | 0.00 | 0.00 | 0.00 | 26 | 1012.7 |
| 20260509163215 | 22 | 62 | 0.0 | 0.0 | 0.00 | 0.00 | 0.00 | 26 | 1012.6 |
| 20260509162708 | 21 | 57 | 0.0 | 0.0 | 0.00 | 0.00 | 0.00 | 25 | 1012.6 |
| 20260509161657 | 21 | 325 | 0.0 | 0.0 | 0.00 | 0.00 | 0.00 | 25 | 1012.6 |
| 20260509161150 | 21 | 325 | 0.0 | 0.0 | 0.00 | 0.00 | 0.00 | 27 | 1012.6 |
| 20260509160647 | 21 | 325 | 0.0 | 0.0 | 0.00 | 0.00 | 0.00 | 27 | 1012.6 |
| 20260509160146 | 20 | 325 | 0.0 | 0.0 | 0.00 | 0.00 | 0.00 | 27 | 1012.6 |
| 20260509155643 | 20 | 325 | 0.0 | 0.0 | 0.00 | 0.00 | 0.00 | 29 | 1012.5 |
| 20260509155143 | 20 | 325 | 0.0 | 0.0 | 0.00 | 0.00 | 0.00 | 29 | 1012.5 |
| 20260509154642 | 20 | 230 | 0.0 | 0.0 | 0.00 | 0.00 | 0.00 | 31 | 1012.5 |